Wetterdaten: Woche 24.11.14 - 30.11.14 (KW48)
Datum Zeit Temp. A. Feuchte A. Luftdruck Regen Wind Richtung Sonnenschein ET UV Solar Taupunkt Windchill Windben Empfang
24.11.2014 00:00 4,2 C 81 % 1024,3 hPa 0,0 l/m 2,9 km/h (1 Bft) O 0,00 h 0,000 mm 0,0 UV-I 0 W/m 1,2 C 3,8 C 5,0 km/h (1 Bft) 0,00 %
24.11.2014 01:00 4,0 C 81 % 1024,1 hPa 0,0 l/m 4,0 km/h (1 Bft) O-SO 0,00 h 0,000 mm 0,0 UV-I 0 W/m 1,1 C 3,8 C 7,9 km/h (2 Bft) 0,00 %
24.11.2014 02:00 3,9 C 81 % 1024,0 hPa 0,0 l/m 5,5 km/h (1 Bft) O-SO 0,00 h 0,000 mm 0,0 UV-I 0 W/m 1,0 C 2,9 C 7,9 km/h (2 Bft) 0,00 %
24.11.2014 03:00 3,8 C 81 % 1023,8 hPa 0,0 l/m 2,3 km/h (1 Bft) O 0,00 h 0,000 mm 0,0 UV-I 0 W/m 0,8 C 3,8 C 4,0 km/h (1 Bft) 0,00 %
24.11.2014 04:00 3,5 C 81 % 1023,8 hPa 0,0 l/m 1,9 km/h (1 Bft) O-SO 0,00 h 0,000 mm 0,0 UV-I 0 W/m 0,6 C 3,5 C 5,0 km/h (1 Bft) 0,00 %
24.11.2014 05:00 3,5 C 81 % 1023,8 hPa 0,0 l/m 0,8 km/h (0 Bft) O-SO 0,00 h 0,000 mm 0,0 UV-I 0 W/m 0,6 C 3,5 C 3,0 km/h (1 Bft) 0,00 %
24.11.2014 06:00 3,5 C 81 % 1024,0 hPa 0,0 l/m 1,4 km/h (1 Bft) SO 0,00 h 0,000 mm 0,0 UV-I 0 W/m 0,6 C 3,5 C 4,0 km/h (1 Bft) 0,00 %
24.11.2014 07:00 3,4 C 82 % 1023,9 hPa 0,0 l/m 2,1 km/h (1 Bft) O-NO 0,00 h 0,000 mm 0,0 UV-I 0 W/m 0,6 C 3,4 C 4,0 km/h (1 Bft) 0,00 %
24.11.2014 08:00 3,5 C 81 % 1023,8 hPa 0,0 l/m 2,8 km/h (1 Bft) SO 0,00 h 0,000 mm 0,0 UV-I 36 W/m 0,6 C 3,5 C 6,0 km/h (2 Bft) 0,00 %
24.11.2014 09:00 3,6 C 81 % 1023,9 hPa 0,0 l/m 1,1 km/h (1 Bft) N 0,00 h 0,000 mm 1,0 UV-I 105 W/m 0,7 C 3,6 C 2,0 km/h (1 Bft) 0,00 %
24.11.2014 10:00 3,8 C 81 % 1024,0 hPa 0,0 l/m 0,4 km/h (0 Bft) N 0,00 h 0,000 mm 1,0 UV-I 106 W/m 0,9 C 3,8 C 3,0 km/h (1 Bft) 0,00 %
24.11.2014 11:00 3,8 C 81 % 1023,6 hPa 0,0 l/m 1,6 km/h (1 Bft) O 0,25 h 0,000 mm 1,0 UV-I 177 W/m 0,9 C 3,8 C 4,0 km/h (1 Bft) 0,00 %
24.11.2014 12:00 4,0 C 81 % 1023,6 hPa 0,0 l/m 0,9 km/h (0 Bft) O 0,50 h 0,000 mm 1,0 UV-I 179 W/m 1,0 C 4,0 C 4,0 km/h (1 Bft) 0,00 %
24.11.2014 13:00 4,0 C 81 % 1023,8 hPa 0,0 l/m 1,0 km/h (0 Bft) O-SO 0,00 h 0,000 mm 1,0 UV-I 126 W/m 1,0 C 4,0 C 4,0 km/h (1 Bft) 0,00 %
24.11.2014 14:00 4,1 C 81 % 1023,9 hPa 0,0 l/m 0,7 km/h (0 Bft) N 0,00 h 0,000 mm 0,0 UV-I 60 W/m 1,0 C 4,1 C 2,0 km/h (1 Bft) 0,00 %
24.11.2014 15:00 4,1 C 81 % 1023,8 hPa 0,0 l/m 0,0 km/h (0 Bft) N 0,00 h 0,000 mm 0,0 UV-I 28 W/m 1,1 C 4,1 C 0,0 km/h (0 Bft) 0,00 %
24.11.2014 16:00 3,7 C 82 % 1024,2 hPa 0,0 l/m 0,2 km/h (0 Bft) N 0,00 h 0,000 mm 0,0 UV-I 0 W/m 0,8 C 3,7 C 2,0 km/h (1 Bft) 0,00 %
24.11.2014 17:00 3,5 C 82 % 1024,6 hPa 0,0 l/m 1,0 km/h (0 Bft) O-SO 0,00 h 0,000 mm 0,0 UV-I 0 W/m 0,7 C 3,5 C 2,0 km/h (1 Bft) 0,00 %
24.11.2014 18:00 3,4 C 83 % 1025,3 hPa 0,0 l/m 0,0 km/h (0 Bft) N 0,00 h 0,000 mm 0,0 UV-I 0 W/m 0,8 C 3,4 C 0,0 km/h (0 Bft) 0,00 %
24.11.2014 19:00 3,4 C 82 % 1025,9 hPa 0,0 l/m 0,0 km/h (0 Bft) N 0,00 h 0,000 mm 0,0 UV-I 0 W/m 0,6 C 3,4 C 0,0 km/h (0 Bft) 0,00 %
24.11.2014 20:00 3,3 C 83 % 1026,1 hPa 0,0 l/m 0,0 km/h (0 Bft) N 0,00 h 0,000 mm 0,0 UV-I 0 W/m 0,7 C 3,3 C 0,0 km/h (0 Bft) 0,00 %
24.11.2014 21:00 3,4 C 83 % 1026,4 hPa 0,0 l/m 0,0 km/h (0 Bft) N 0,00 h 0,000 mm 0,0 UV-I 0 W/m 0,7 C 3,4 C 0,0 km/h (0 Bft) 0,00 %
24.11.2014 22:00 3,4 C 83 % 1026,4 hPa 0,0 l/m 0,0 km/h (0 Bft) N 0,00 h 0,000 mm 0,0 UV-I 0 W/m 0,7 C 3,4 C 0,0 km/h (0 Bft) 0,00 %
24.11.2014 23:00 3,4 C 84 % 1026,5 hPa 0,0 l/m 0,4 km/h (0 Bft) O-SO 0,00 h 0,000 mm 0,0 UV-I 0 W/m 0,9 C 3,4 C 2,0 km/h (1 Bft) 0,00 %
25.11.2014 00:00 3,3 C 83 % 1026,6 hPa 0,0 l/m 0,5 km/h (0 Bft) O-SO 0,00 h 0,000 mm 0,0 UV-I 0 W/m 0,7 C 3,3 C 2,0 km/h (1 Bft) 0,00 %
25.11.2014 01:00 3,4 C 83 % 1026,4 hPa 0,0 l/m 0,7 km/h (0 Bft) SO 0,00 h 0,000 mm 0,0 UV-I 0 W/m 0,8 C 3,4 C 1,0 km/h (0 Bft) 0,00 %
25.11.2014 02:00 3,5 C 83 % 1026,4 hPa 0,0 l/m 0,0 km/h (0 Bft) N 0,00 h 0,000 mm 0,0 UV-I 0 W/m 0,8 C 3,5 C 0,0 km/h (0 Bft) 0,00 %
25.11.2014 03:00 3,5 C 83 % 1026,2 hPa 0,0 l/m 0,0 km/h (0 Bft) N 0,00 h 0,000 mm 0,0 UV-I 0 W/m 0,9 C 3,5 C 0,0 km/h (0 Bft) 0,00 %
25.11.2014 04:00 3,5 C 83 % 1026,1 hPa 0,0 l/m 0,4 km/h (0 Bft) S 0,00 h 0,000 mm 0,0 UV-I 0 W/m 0,9 C 3,5 C 1,0 km/h (0 Bft) 0,00 %
25.11.2014 05:00 3,4 C 84 % 1026,0 hPa 0,0 l/m 3,0 km/h (1 Bft) O 0,00 h 0,000 mm 0,0 UV-I 0 W/m 0,9 C 3,4 C 5,0 km/h (1 Bft) 0,00 %
25.11.2014 06:00 3,4 C 84 % 1026,0 hPa 0,0 l/m 0,7 km/h (0 Bft) SO 0,00 h 0,000 mm 0,0 UV-I 0 W/m 1,0 C 3,4 C 4,0 km/h (1 Bft) 0,00 %
25.11.2014 07:00 3,4 C 83 % 1026,3 hPa 0,0 l/m 3,2 km/h (1 Bft) S 0,00 h 0,000 mm 0,0 UV-I 0 W/m 0,8 C 3,4 C 6,9 km/h (2 Bft) 0,00 %
25.11.2014 08:00 3,3 C 83 % 1026,4 hPa 0,0 l/m 4,0 km/h (1 Bft) O 0,00 h 0,000 mm 0,0 UV-I 23 W/m 0,7 C 3,2 C 5,9 km/h (2 Bft) 0,00 %
25.11.2014 09:00 3,5 C 82 % 1026,4 hPa 0,0 l/m 4,5 km/h (1 Bft) O-NO 0,00 h 0,000 mm 1,0 UV-I 66 W/m 0,7 C 3,0 C 6,9 km/h (2 Bft) 0,00 %
25.11.2014 10:00 4,1 C 78 % 1026,2 hPa 0,0 l/m 10,8 km/h (2 Bft) O-SO 0,00 h 0,000 mm 1,3 UV-I 111 W/m 0,7 C 0,5 C 15,9 km/h (3 Bft) 0,00 %
25.11.2014 11:00 4,6 C 75 % 1025,6 hPa 0,0 l/m 6,2 km/h (2 Bft) NO 0,00 h 0,000 mm 2,0 UV-I 155 W/m 0,4 C 3,1 C 8,9 km/h (2 Bft) 0,00 %
25.11.2014 12:00 4,8 C 73 % 1025,1 hPa 0,0 l/m 7,4 km/h (2 Bft) O-SO 0,50 h 0,000 mm 1,0 UV-I 211 W/m 0,4 C 2,9 C 11,9 km/h (2 Bft) 0,00 %
25.11.2014 13:00 4,5 C 74 % 1024,8 hPa 0,0 l/m 6,1 km/h (2 Bft) O-NO 0,25 h 0,000 mm 1,0 UV-I 139 W/m 0,2 C 3,5 C 9,9 km/h (2 Bft) 0,00 %
25.11.2014 14:00 4,2 C 73 % 1024,4 hPa 0,0 l/m 10,7 km/h (2 Bft) O 1,00 h 0,000 mm 1,0 UV-I 167 W/m -0,2 C 1,1 C 16,9 km/h (3 Bft) 0,00 %
25.11.2014 15:00 3,9 C 73 % 1024,6 hPa 0,0 l/m 9,9 km/h (2 Bft) O-SO 0,00 h 0,000 mm 0,0 UV-I 43 W/m -0,5 C 0,7 C 13,8 km/h (3 Bft) 0,00 %
25.11.2014 16:00 3,6 C 74 % 1024,6 hPa 0,0 l/m 11,1 km/h (2 Bft) O 0,00 h 0,000 mm 0,0 UV-I 0 W/m -0,7 C -0,3 C 17,9 km/h (3 Bft) 0,00 %
25.11.2014 17:00 3,4 C 76 % 1024,3 hPa 0,0 l/m 6,6 km/h (2 Bft) O 0,00 h 0,000 mm 0,0 UV-I 0 W/m -0,5 C 2,3 C 10,9 km/h (2 Bft) 0,00 %
25.11.2014 18:00 3,3 C 75 % 1023,9 hPa 0,0 l/m 7,1 km/h (2 Bft) O 0,00 h 0,000 mm 0,0 UV-I 0 W/m -0,7 C 1,5 C 10,9 km/h (2 Bft) 0,00 %
25.11.2014 19:00 3,4 C 76 % 1023,5 hPa 0,0 l/m 15,2 km/h (3 Bft) O 0,00 h 0,000 mm 0,0 UV-I 0 W/m -0,5 C -2,6 C 20,0 km/h (4 Bft) 0,00 %
25.11.2014 20:00 3,4 C 74 % 1023,1 hPa 0,0 l/m 18,2 km/h (3 Bft) O 0,00 h 0,000 mm 0,0 UV-I 0 W/m -0,8 C -4,4 C 24,0 km/h (4 Bft) 0,00 %
25.11.2014 21:00 3,3 C 73 % 1022,9 hPa 0,0 l/m 9,0 km/h (2 Bft) O-SO 0,00 h 0,000 mm 0,0 UV-I 0 W/m -1,0 C 0,7 C 14,9 km/h (3 Bft) 0,00 %
25.11.2014 22:00 3,1 C 75 % 1022,5 hPa 0,0 l/m 16,6 km/h (3 Bft) O 0,00 h 0,000 mm 0,0 UV-I 0 W/m -1,0 C -3,7 C 22,9 km/h (4 Bft) 0,00 %
25.11.2014 23:00 3,0 C 74 % 1022,2 hPa 0,0 l/m 16,6 km/h (3 Bft) O 0,00 h 0,000 mm 0,0 UV-I 0 W/m -1,2 C -4,0 C 22,0 km/h (4 Bft) 0,00 %
26.11.2014 00:00 2,8 C 74 % 1021,5 hPa 0,0 l/m 6,9 km/h (2 Bft) O 0,00 h 0,000 mm 0,0 UV-I 0 W/m -1,4 C 1,1 C 11,9 km/h (2 Bft) 0,00 %
26.11.2014 01:00 2,5 C 73 % 1020,9 hPa 0,0 l/m 11,6 km/h (2 Bft) O-SO 0,00 h 0,000 mm 0,0 UV-I 0 W/m -1,9 C -1,6 C 14,9 km/h (3 Bft) 0,00 %
26.11.2014 02:00 2,3 C 71 % 1020,5 hPa 0,0 l/m 21,6 km/h (4 Bft) O 0,00 h 0,000 mm 0,0 UV-I 0 W/m -2,5 C -7,3 C 29,0 km/h (5 Bft) 0,00 %
26.11.2014 03:00 2,2 C 71 % 1020,2 hPa 0,0 l/m 13,9 km/h (3 Bft) O-SO 0,00 h 0,000 mm 0,0 UV-I 0 W/m -2,5 C -3,3 C 20,0 km/h (4 Bft) 0,00 %
26.11.2014 04:00 2,2 C 70 % 1019,9 hPa 0,0 l/m 17,6 km/h (3 Bft) O-NO 0,00 h 0,000 mm 0,0 UV-I 0 W/m -2,7 C -5,6 C 22,0 km/h (4 Bft) 0,00 %
26.11.2014 05:00 2,2 C 70 % 1019,5 hPa 0,0 l/m 11,1 km/h (2 Bft) O 0,00 h 0,000 mm 0,0 UV-I 0 W/m -2,7 C -2,3 C 16,9 km/h (3 Bft) 0,00 %
26.11.2014 06:00 2,2 C 71 % 1019,4 hPa 0,0 l/m 14,5 km/h (3 Bft) O 0,00 h 0,000 mm 0,0 UV-I 0 W/m -2,6 C -3,8 C 18,9 km/h (3 Bft) 0,00 %
26.11.2014 07:00 2,1 C 71 % 1019,7 hPa 0,0 l/m 13,2 km/h (3 Bft) O 0,00 h 0,000 mm 0,0 UV-I 0 W/m -2,6 C -3,1 C 15,8 km/h (3 Bft) 0,00 %
26.11.2014 08:00 2,1 C 71 % 1019,9 hPa 0,0 l/m 7,3 km/h (2 Bft) O-NO 0,00 h 0,000 mm 0,0 UV-I 8 W/m -2,6 C 0,9 C 11,9 km/h (2 Bft) 0,00 %
26.11.2014 09:00 2,2 C 71 % 1019,9 hPa 0,0 l/m 7,7 km/h (2 Bft) O 0,00 h 0,000 mm 0,0 UV-I 51 W/m -2,5 C 0,8 C 10,9 km/h (2 Bft) 0,00 %
26.11.2014 10:00 2,5 C 75 % 1019,6 hPa 0,0 l/m 12,9 km/h (3 Bft) NO 0,00 h 0,000 mm 1,0 UV-I 135 W/m -1,5 C -2,5 C 17,9 km/h (3 Bft) 0,00 %
26.11.2014 11:00 2,9 C 75 % 1019,0 hPa 0,0 l/m 6,3 km/h (2 Bft) S 0,50 h 0,000 mm 1,0 UV-I 226 W/m -1,1 C 2,2 C 9,9 km/h (2 Bft) 0,00 %
26.11.2014 12:00 3,4 C 74 % 1018,5 hPa 0,0 l/m 5,2 km/h (1 Bft) O 1,00 h 0,000 mm 1,0 UV-I 302 W/m -0,9 C 2,7 C 7,9 km/h (2 Bft) 0,00 %
26.11.2014 13:00 3,8 C 72 % 1017,8 hPa 0,0 l/m 8,4 km/h (2 Bft) SO 1,00 h 0,000 mm 1,0 UV-I 283 W/m -0,9 C 1,7 C 14,9 km/h (3 Bft) 0,00 %
26.11.2014 14:00 4,2 C 71 % 1017,5 hPa 0,0 l/m 5,0 km/h (1 Bft) S 0,75 h 0,000 mm 1,0 UV-I 133 W/m -0,6 C 2,7 C 7,9 km/h (2 Bft) 0,00 %
26.11.2014 15:00 4,1 C 71 % 1017,2 hPa 0,0 l/m 7,1 km/h (2 Bft) O 0,00 h 0,000 mm 0,0 UV-I 19 W/m -0,7 C 1,7 C 11,9 km/h (2 Bft) 0,00 %
26.11.2014 16:00 3,7 C 71 % 1017,1 hPa 0,0 l/m 9,2 km/h (2 Bft) O-NO 0,00 h 0,000 mm 0,0 UV-I 0 W/m -1,0 C 0,5 C 13,0 km/h (3 Bft) 0,00 %
26.11.2014 17:00 3,1 C 72 % 1016,8 hPa 0,0 l/m 15,8 km/h (3 Bft) O-SO 0,00 h 0,000 mm 0,0 UV-I 0 W/m -1,4 C -3,4 C 22,0 km/h (4 Bft) 0,00 %
26.11.2014 18:00 2,3 C 71 % 1017,1 hPa 0,0 l/m 9,5 km/h (2 Bft) O-SO 0,00 h 0,000 mm 0,0 UV-I 0 W/m -2,3 C -0,4 C 13,8 km/h (3 Bft) 0,00 %
26.11.2014 19:00 1,8 C 70 % 1016,9 hPa 0,0 l/m 10,6 km/h (2 Bft) O-NO 0,00 h 0,000 mm 0,0 UV-I 0 W/m -3,1 C -2,1 C 13,9 km/h (3 Bft) 0,00 %
26.11.2014 20:00 1,5 C 71 % 1016,9 hPa 0,0 l/m 8,4 km/h (2 Bft) O 0,00 h 0,000 mm 0,0 UV-I 0 W/m -3,2 C -1,1 C 12,9 km/h (3 Bft) 0,00 %
26.11.2014 21:00 1,3 C 71 % 1016,5 hPa 0,0 l/m 10,8 km/h (2 Bft) O-SO 0,00 h 0,000 mm 0,0 UV-I 0 W/m -3,3 C -2,9 C 14,9 km/h (3 Bft) 0,00 %
26.11.2014 22:00 1,0 C 71 % 1016,3 hPa 0,0 l/m 9,5 km/h (2 Bft) O-NO 0,00 h 0,000 mm 0,0 UV-I 0 W/m -3,6 C -2,7 C 13,9 km/h (3 Bft) 0,00 %
26.11.2014 23:00 0,8 C 71 % 1015,8 hPa 0,0 l/m 9,0 km/h (2 Bft) O-SO 0,00 h 0,000 mm 0,0 UV-I 0 W/m -3,8 C -2,3 C 12,8 km/h (3 Bft) 0,00 %
27.11.2014 00:00 0,7 C 71 % 1015,4 hPa 0,0 l/m 7,3 km/h (2 Bft) O-NO 0,00 h 0,000 mm 0,0 UV-I 0 W/m -3,9 C -0,4 C 9,9 km/h (2 Bft) 0,00 %
27.11.2014 01:00 0,9 C 71 % 1014,9 hPa 0,0 l/m 1,9 km/h (1 Bft) O 0,00 h 0,000 mm 0,0 UV-I 0 W/m -3,8 C 0,9 C 3,0 km/h (1 Bft) 0,00 %
27.11.2014 02:00 0,6 C 71 % 1014,4 hPa 0,0 l/m 6,1 km/h (2 Bft) O-SO 0,00 h 0,000 mm 0,0 UV-I 0 W/m -4,0 C 0,2 C 7,9 km/h (2 Bft) 0,00 %
27.11.2014 03:00 0,5 C 72 % 1013,8 hPa 0,0 l/m 4,6 km/h (1 Bft) O-NO 0,00 h 0,000 mm 0,0 UV-I 0 W/m -3,9 C -0,3 C 8,9 km/h (2 Bft) 0,00 %
27.11.2014 04:00 0,4 C 73 % 1013,4 hPa 0,0 l/m 7,1 km/h (2 Bft) O 0,00 h 0,000 mm 0,0 UV-I 0 W/m -3,8 C -1,1 C 11,9 km/h (2 Bft) 0,00 %
27.11.2014 05:00 0,5 C 73 % 1013,1 hPa 0,0 l/m 2,9 km/h (1 Bft) O-SO 0,00 h 0,000 mm 0,0 UV-I 0 W/m -3,7 C 0,5 C 4,9 km/h (1 Bft) 0,00 %
27.11.2014 06:00 0,4 C 75 % 1013,0 hPa 0,0 l/m 4,5 km/h (1 Bft) O-SO 0,00 h 0,000 mm 0,0 UV-I 0 W/m -3,5 C -0,2 C 7,9 km/h (2 Bft) 0,00 %
27.11.2014 07:00 0,2 C 77 % 1013,2 hPa 0,0 l/m 2,7 km/h (1 Bft) O-SO 0,25 h 0,000 mm 0,0 UV-I 17 W/m -3,4 C 0,2 C 5,9 km/h (2 Bft) 0,00 %
27.11.2014 08:00 0,6 C 76 % 1013,0 hPa 0,0 l/m 2,5 km/h (1 Bft) NO 0,00 h 0,000 mm 1,0 UV-I 55 W/m -3,2 C 0,6 C 5,9 km/h (2 Bft) 0,00 %
27.11.2014 09:00 1,5 C 72 % 1012,7 hPa 0,0 l/m 8,0 km/h (2 Bft) O 0,00 h 0,000 mm 1,0 UV-I 99 W/m -2,9 C -0,2 C 10,9 km/h (2 Bft) 0,00 %
27.11.2014 10:00 2,2 C 71 % 1012,5 hPa 0,0 l/m 7,5 km/h (2 Bft) O-SO 0,00 h 0,000 mm 1,0 UV-I 129 W/m -2,6 C 0,8 C 11,9 km/h (2 Bft) 0,00 %
27.11.2014 11:00 2,4 C 72 % 1011,9 hPa 0,0 l/m 14,8 km/h (3 Bft) O 0,00 h 0,000 mm 1,7 UV-I 155 W/m -2,1 C -4,0 C 19,9 km/h (4 Bft) 0,00 %
27.11.2014 12:00 2,4 C 70 % 1011,4 hPa 0,0 l/m 5,7 km/h (1 Bft) O 0,50 h 0,000 mm 1,0 UV-I 203 W/m -2,5 C 2,0 C 9,9 km/h (2 Bft) 0,00 %
27.11.2014 13:00 2,6 C 73 % 1010,8 hPa 0,0 l/m 8,8 km/h (2 Bft) SO 1,00 h 0,000 mm 1,0 UV-I 337 W/m -1,8 C 0,5 C 13,8 km/h (3 Bft) 0,00 %
27.11.2014 14:00 2,7 C 72 % 1010,5 hPa 0,0 l/m 11,9 km/h (2 Bft) S 1,00 h 0,000 mm 1,0 UV-I 236 W/m -1,8 C -1,6 C 17,9 km/h (3 Bft) 0,00 %
27.11.2014 15:00 2,4 C 70 % 1010,8 hPa 0,0 l/m 10,2 km/h (2 Bft) NO 0,50 h 0,000 mm 0,0 UV-I 55 W/m -2,6 C -1,1 C 13,8 km/h (3 Bft) 0,00 %
27.11.2014 16:00 1,8 C 68 % 1011,2 hPa 0,0 l/m 7,6 km/h (2 Bft) O-SO 0,00 h 0,000 mm 0,0 UV-I 0 W/m -3,5 C 0,1 C 12,9 km/h (3 Bft) 0,00 %
27.11.2014 17:00 1,2 C 69 % 1011,3 hPa 0,0 l/m 15,2 km/h (3 Bft) O 0,00 h 0,000 mm 0,0 UV-I 0 W/m -3,9 C -5,3 C 21,9 km/h (4 Bft) 0,00 %
27.11.2014 18:00 0,8 C 69 % 1011,6 hPa 0,0 l/m 11,0 km/h (2 Bft) O 0,00 h 0,000 mm 0,0 UV-I 0 W/m -4,3 C -3,6 C 16,0 km/h (3 Bft) 0,00 %
27.11.2014 19:00 0,4 C 70 % 1011,8 hPa 0,0 l/m 16,2 km/h (3 Bft) O 0,00 h 0,000 mm 0,0 UV-I 0 W/m -4,3 C -6,8 C 22,0 km/h (4 Bft) 0,00 %
27.11.2014 20:00 0,4 C 71 % 1012,1 hPa 0,0 l/m 13,4 km/h (3 Bft) O-SO 0,00 h 0,000 mm 0,0 UV-I 0 W/m -4,2 C -5,1 C 18,9 km/h (3 Bft) 0,00 %
27.11.2014 21:00 0,5 C 71 % 1012,4 hPa 0,0 l/m 10,8 km/h (2 Bft) O-NO 0,00 h 0,000 mm 0,0 UV-I 0 W/m -4,1 C -3,9 C 17,0 km/h (3 Bft) 0,00 %
27.11.2014 22:00 0,4 C 73 % 1012,5 hPa 0,0 l/m 10,3 km/h (2 Bft) O-SO 0,00 h 0,000 mm 0,0 UV-I 0 W/m -3,9 C -3,0 C 13,8 km/h (3 Bft) 0,00 %
27.11.2014 23:00 0,4 C 73 % 1012,6 hPa 0,0 l/m 9,9 km/h (2 Bft) O 0,00 h 0,000 mm 0,0 UV-I 0 W/m -3,9 C -3,2 C 14,8 km/h (3 Bft) 0,00 %
28.11.2014 00:00 0,4 C 73 % 1012,6 hPa 0,0 l/m 12,4 km/h (3 Bft) O 0,00 h 0,000 mm 0,0 UV-I 0 W/m -3,8 C -4,0 C 18,9 km/h (3 Bft) 0,00 %
28.11.2014 01:00 0,4 C 74 % 1012,8 hPa 0,0 l/m 13,1 km/h (3 Bft) O 0,00 h 0,000 mm 0,0 UV-I 0 W/m -3,7 C -4,9 C 19,9 km/h (4 Bft) 0,00 %
28.11.2014 02:00 0,3 C 75 % 1012,9 hPa 0,0 l/m 12,4 km/h (3 Bft) O 0,00 h 0,000 mm 0,0 UV-I 0 W/m -3,6 C -4,5 C 15,8 km/h (3 Bft) 0,00 %
28.11.2014 03:00 0,3 C 75 % 1013,1 hPa 0,0 l/m 11,1 km/h (2 Bft) O 0,00 h 0,000 mm 0,0 UV-I 0 W/m -3,6 C -3,5 C 15,9 km/h (3 Bft) 0,00 %
28.11.2014 04:00 0,2 C 77 % 1013,3 hPa 0,0 l/m 11,7 km/h (2 Bft) O-NO 0,00 h 0,000 mm 0,0 UV-I 0 W/m -3,5 C -4,4 C 15,8 km/h (3 Bft) 0,00 %
28.11.2014 05:00 0,1 C 78 % 1013,3 hPa 0,0 l/m 5,8 km/h (2 Bft) O 0,00 h 0,000 mm 0,0 UV-I 0 W/m -3,3 C -0,6 C 9,9 km/h (2 Bft) 0,00 %
28.11.2014 06:00 0,1 C 79 % 1013,6 hPa 0,0 l/m 7,3 km/h (2 Bft) O-NO 0,00 h 0,000 mm 0,0 UV-I 0 W/m -3,1 C -1,6 C 12,8 km/h (3 Bft) 0,00 %
28.11.2014 07:00 0,2 C 80 % 1014,0 hPa 0,0 l/m 6,6 km/h (2 Bft) O 0,00 h 0,000 mm 0,0 UV-I 0 W/m -2,9 C -1,9 C 10,9 km/h (2 Bft) 0,00 %
28.11.2014 08:00 0,2 C 79 % 1014,0 hPa 0,0 l/m 11,4 km/h (2 Bft) O 0,00 h 0,000 mm 0,0 UV-I 14 W/m -2,9 C -4,1 C 15,8 km/h (3 Bft) 0,00 %
28.11.2014 09:00 0,4 C 78 % 1014,5 hPa 0,0 l/m 15,0 km/h (3 Bft) O-SO 0,00 h 0,000 mm 0,0 UV-I 61 W/m -3,1 C -6,3 C 21,0 km/h (4 Bft) 0,00 %
28.11.2014 10:00 0,6 C 76 % 1014,4 hPa 0,0 l/m 9,9 km/h (2 Bft) O 0,00 h 0,000 mm 1,0 UV-I 121 W/m -3,2 C -2,9 C 13,9 km/h (3 Bft) 0,00 %
28.11.2014 11:00 0,8 C 76 % 1014,0 hPa 0,0 l/m 12,6 km/h (3 Bft) O-SO 0,00 h 0,000 mm 1,0 UV-I 115 W/m -3,0 C -4,3 C 15,9 km/h (3 Bft) 0,00 %
28.11.2014 12:00 0,8 C 75 % 1013,8 hPa 0,0 l/m 11,1 km/h (2 Bft) S 0,00 h 0,000 mm 1,0 UV-I 85 W/m -3,1 C -3,5 C 14,9 km/h (3 Bft) 0,00 %
28.11.2014 13:00 0,9 C 75 % 1013,7 hPa 0,0 l/m 13,1 km/h (3 Bft) O-NO 0,00 h 0,000 mm 1,0 UV-I 83 W/m -3,0 C -4,7 C 18,8 km/h (3 Bft) 0,00 %
28.11.2014 14:00 0,8 C 76 % 1013,6 hPa 0,0 l/m 9,8 km/h (2 Bft) O-NO 0,00 h 0,000 mm 0,0 UV-I 13 W/m -3,0 C -3,1 C 15,9 km/h (3 Bft) 0,00 %
28.11.2014 15:00 0,8 C 77 % 1014,1 hPa 0,0 l/m 10,3 km/h (2 Bft) O-NO 0,00 h 0,000 mm 0,0 UV-I 0 W/m -2,8 C -2,9 C 17,9 km/h (3 Bft) 0,00 %
28.11.2014 16:00 0,6 C 78 % 1014,2 hPa 0,0 l/m 11,7 km/h (2 Bft) O-SO 0,00 h 0,000 mm 0,0 UV-I 0 W/m -2,8 C -3,8 C 16,9 km/h (3 Bft) 0,00 %
28.11.2014 17:00 0,5 C 79 % 1014,6 hPa 0,0 l/m 17,0 km/h (3 Bft) O-SO 0,00 h 0,000 mm 0,0 UV-I 0 W/m -2,7 C -6,8 C 23,0 km/h (4 Bft) 0,00 %
28.11.2014 18:00 0,5 C 79 % 1014,7 hPa 0,0 l/m 8,5 km/h (2 Bft) O-SO 0,00 h 0,000 mm 0,0 UV-I 0 W/m -2,7 C -2,0 C 13,9 km/h (3 Bft) 0,00 %
28.11.2014 19:00 0,5 C 80 % 1015,0 hPa 0,0 l/m 10,8 km/h (2 Bft) O 0,00 h 0,000 mm 0,0 UV-I 0 W/m -2,6 C -3,4 C 15,8 km/h (3 Bft) 0,00 %
28.11.2014 20:00 0,5 C 80 % 1015,2 hPa 0,0 l/m 14,8 km/h (3 Bft) O-SO 0,00 h 0,000 mm 0,0 UV-I 0 W/m -2,5 C -6,1 C 18,9 km/h (3 Bft) 0,00 %
28.11.2014 21:00 0,5 C 80 % 1015,5 hPa 0,0 l/m 9,4 km/h (2 Bft) O-SO 0,00 h 0,000 mm 0,0 UV-I 0 W/m -2,5 C -2,1 C 13,9 km/h (3 Bft) 0,00 %
28.11.2014 22:00 0,4 C 80 % 1015,8 hPa 0,0 l/m 9,2 km/h (2 Bft) O 0,00 h 0,000 mm 0,0 UV-I 0 W/m -2,6 C -2,6 C 10,9 km/h (2 Bft) 0,00 %
28.11.2014 23:00 0,4 C 81 % 1015,8 hPa 0,0 l/m 15,5 km/h (3 Bft) O 0,00 h 0,000 mm 0,0 UV-I 0 W/m -2,5 C -6,4 C 21,2 km/h (4 Bft) 0,00 %
29.11.2014 00:00 0,4 C 81 % 1015,7 hPa 0,0 l/m 14,3 km/h (3 Bft) O 0,00 h 0,000 mm 0,0 UV-I 0 W/m -2,5 C -5,4 C 20,0 km/h (4 Bft) 0,00 %
29.11.2014 01:00 0,4 C 81 % 1015,7 hPa 0,0 l/m 9,4 km/h (2 Bft) O-SO 0,00 h 0,000 mm 0,0 UV-I 0 W/m -2,5 C -2,4 C 13,8 km/h (3 Bft) 0,00 %
29.11.2014 02:00 0,5 C 80 % 1015,8 hPa 0,0 l/m 12,4 km/h (3 Bft) NO 0,00 h 0,000 mm 0,0 UV-I 0 W/m -2,6 C -4,4 C 18,9 km/h (3 Bft) 0,00 %
29.11.2014 03:00 0,5 C 79 % 1015,6 hPa 0,0 l/m 12,4 km/h (3 Bft) NO 0,00 h 0,000 mm 0,0 UV-I 0 W/m -2,7 C -4,5 C 17,9 km/h (3 Bft) 0,00 %
29.11.2014 04:00 0,5 C 79 % 1015,6 hPa 0,0 l/m 8,1 km/h (2 Bft) O-SO 0,00 h 0,000 mm 0,0 UV-I 0 W/m -2,7 C -2,1 C 12,9 km/h (3 Bft) 0,00 %
29.11.2014 05:00 0,5 C 79 % 1015,8 hPa 0,0 l/m 16,8 km/h (3 Bft) O-NO 0,00 h 0,000 mm 0,0 UV-I 0 W/m -2,7 C -7,3 C 23,9 km/h (4 Bft) 0,00 %
29.11.2014 06:00 0,5 C 79 % 1015,9 hPa 0,0 l/m 13,1 km/h (3 Bft) O 0,00 h 0,000 mm 0,0 UV-I 0 W/m -2,7 C -5,1 C 19,9 km/h (4 Bft) 0,00 %
29.11.2014 07:00 0,5 C 79 % 1016,2 hPa 0,0 l/m 14,7 km/h (3 Bft) O 0,00 h 0,000 mm 0,0 UV-I 0 W/m -2,7 C -6,2 C 20,0 km/h (4 Bft) 0,00 %
29.11.2014 08:00 0,6 C 79 % 1016,6 hPa 0,0 l/m 7,6 km/h (2 Bft) S 0,00 h 0,000 mm 0,0 UV-I 29 W/m -2,7 C -1,5 C 12,9 km/h (3 Bft) 0,00 %
29.11.2014 09:00 0,7 C 78 % 1016,8 hPa 0,0 l/m 11,3 km/h (2 Bft) NO 0,00 h 0,000 mm 0,0 UV-I 37 W/m -2,7 C -3,5 C 16,8 km/h (3 Bft) 0,00 %
29.11.2014 10:00 0,9 C 78 % 1017,1 hPa 0,0 l/m 15,4 km/h (3 Bft) O-SO 0,00 h 0,000 mm 0,0 UV-I 69 W/m -2,6 C -5,6 C 18,9 km/h (3 Bft) 0,00 %
29.11.2014 11:00 1,0 C 77 % 1017,0 hPa 0,0 l/m 11,6 km/h (2 Bft) O 0,00 h 0,000 mm 1,0 UV-I 115 W/m -2,5 C -3,4 C 15,8 km/h (3 Bft) 0,00 %
29.11.2014 12:00 1,1 C 77 % 1016,7 hPa 0,0 l/m 8,1 km/h (2 Bft) NO 0,00 h 0,000 mm 1,0 UV-I 98 W/m -2,4 C -1,6 C 12,0 km/h (2 Bft) 0,00 %
29.11.2014 13:00 1,2 C 76 % 1016,3 hPa 0,0 l/m 11,0 km/h (2 Bft) O 0,00 h 0,000 mm 0,0 UV-I 80 W/m -2,5 C -3,0 C 15,8 km/h (3 Bft) 0,00 %
29.11.2014 14:00 1,2 C 77 % 1015,9 hPa 0,0 l/m 12,9 km/h (3 Bft) O-SO 0,00 h 0,000 mm 0,0 UV-I 63 W/m -2,4 C -3,9 C 19,9 km/h (4 Bft) 0,00 %
29.11.2014 15:00 1,2 C 77 % 1016,1 hPa 0,0 l/m 13,0 km/h (3 Bft) O-SO 0,00 h 0,000 mm 0,0 UV-I 6 W/m -2,4 C -4,1 C 20,0 km/h (4 Bft) 0,00 %
29.11.2014 16:00 1,1 C 77 % 1016,2 hPa 0,0 l/m 11,6 km/h (2 Bft) NO 0,00 h 0,000 mm 0,0 UV-I 0 W/m -2,5 C -3,4 C 18,8 km/h (3 Bft) 0,00 %
29.11.2014 17:00 1,2 C 77 % 1016,4 hPa 0,0 l/m 9,3 km/h (2 Bft) O 0,00 h 0,000 mm 0,0 UV-I 0 W/m -2,4 C -1,4 C 15,9 km/h (3 Bft) 0,00 %
29.11.2014 18:00 1,2 C 77 % 1016,6 hPa 0,0 l/m 13,9 km/h (3 Bft) O 0,00 h 0,000 mm 0,0 UV-I 0 W/m -2,5 C -4,8 C 21,0 km/h (4 Bft) 0,00 %
29.11.2014 19:00 1,2 C 77 % 1016,8 hPa 0,0 l/m 13,4 km/h (3 Bft) O-SO 0,00 h 0,000 mm 0,0 UV-I 0 W/m -2,4 C -4,1 C 17,9 km/h (3 Bft) 0,00 %
29.11.2014 20:00 1,3 C 76 % 1016,6 hPa 0,0 l/m 15,0 km/h (3 Bft) O 0,00 h 0,000 mm 0,0 UV-I 0 W/m -2,5 C -5,3 C 23,0 km/h (4 Bft) 0,00 %
29.11.2014 21:00 1,2 C 77 % 1016,5 hPa 0,0 l/m 8,9 km/h (2 Bft) O 0,00 h 0,000 mm 0,0 UV-I 0 W/m -2,4 C -1,4 C 13,8 km/h (3 Bft) 0,00 %
29.11.2014 22:00 1,2 C 78 % 1016,2 hPa 0,0 l/m 10,6 km/h (2 Bft) O 0,00 h 0,000 mm 0,0 UV-I 0 W/m -2,3 C -2,5 C 14,8 km/h (3 Bft) 0,00 %
29.11.2014 23:00 1,1 C 79 % 1016,1 hPa 0,0 l/m 12,8 km/h (3 Bft) O-SO 0,00 h 0,000 mm 0,0 UV-I 0 W/m -2,2 C -3,7 C 18,9 km/h (3 Bft) 0,00 %
30.11.2014 00:00 1,0 C 79 % 1015,8 hPa 0,0 l/m 7,8 km/h (2 Bft) O 0,00 h 0,000 mm 0,0 UV-I 0 W/m -2,2 C -0,4 C 11,9 km/h (2 Bft) 0,00 %
30.11.2014 01:00 1,0 C 79 % 1015,8 hPa 0,0 l/m 11,1 km/h (2 Bft) O-SO 0,00 h 0,000 mm 0,0 UV-I 0 W/m -2,3 C -3,1 C 14,9 km/h (3 Bft) 0,00 %
30.11.2014 02:00 1,0 C 79 % 1015,8 hPa 0,0 l/m 5,3 km/h (1 Bft) S 0,00 h 0,000 mm 0,0 UV-I 0 W/m -2,3 C 0,8 C 9,9 km/h (2 Bft) 0,00 %
30.11.2014 03:00 0,8 C 79 % 1015,2 hPa 0,0 l/m 7,5 km/h (2 Bft) O 0,00 h 0,000 mm 0,0 UV-I 0 W/m -2,4 C -1,2 C 11,9 km/h (2 Bft) 0,00 %
30.11.2014 04:00 0,7 C 79 % 1015,0 hPa 0,0 l/m 12,6 km/h (3 Bft) O 0,00 h 0,000 mm 0,0 UV-I 0 W/m -2,5 C -4,0 C 18,9 km/h (3 Bft) 0,00 %
30.11.2014 05:00 0,7 C 80 % 1014,8 hPa 0,0 l/m 8,1 km/h (2 Bft) O-SO 0,00 h 0,000 mm 0,0 UV-I 0 W/m -2,4 C -1,9 C 10,9 km/h (2 Bft) 0,00 %
30.11.2014 06:00 0,7 C 80 % 1014,8 hPa 0,0 l/m 9,3 km/h (2 Bft) O 0,00 h 0,000 mm 0,0 UV-I 0 W/m -2,4 C -1,8 C 14,8 km/h (3 Bft) 0,00 %
30.11.2014 07:00 0,7 C 81 % 1015,0 hPa 0,0 l/m 8,6 km/h (2 Bft) O 0,00 h 0,000 mm 0,0 UV-I 0 W/m -2,2 C -1,7 C 13,9 km/h (3 Bft) 0,00 %
30.11.2014 08:00 0,7 C 81 % 1014,9 hPa 0,0 l/m 6,3 km/h (2 Bft) SO 0,00 h 0,000 mm 0,0 UV-I 16 W/m -2,2 C -0,9 C 10,9 km/h (2 Bft) 0,00 %
30.11.2014 09:00 0,9 C 81 % 1014,6 hPa 0,0 l/m 5,6 km/h (1 Bft) O-SO 0,00 h 0,000 mm 1,0 UV-I 74 W/m -2,0 C 0,4 C 10,9 km/h (2 Bft) 0,00 %
30.11.2014 10:00 1,1 C 81 % 1014,4 hPa 0,0 l/m 6,8 km/h (2 Bft) O-SO 0,00 h 0,000 mm 1,0 UV-I 128 W/m -1,8 C -0,1 C 9,9 km/h (2 Bft) 0,00 %
30.11.2014 11:00 1,3 C 80 % 1014,5 hPa 0,0 l/m 8,6 km/h (2 Bft) O 0,00 h 0,000 mm 1,0 UV-I 102 W/m -1,7 C -1,2 C 12,9 km/h (3 Bft) 0,00 %
30.11.2014 12:00 1,5 C 79 % 1014,0 hPa 0,0 l/m 6,1 km/h (2 Bft) O-SO 0,25 h 0,000 mm 1,0 UV-I 149 W/m -1,7 C 0,1 C 10,9 km/h (2 Bft) 0,00 %
30.11.2014 13:00 1,6 C 80 % 1013,3 hPa 0,0 l/m 6,7 km/h (2 Bft) O-SO 0,25 h 0,000 mm 1,0 UV-I 146 W/m -1,6 C -0,6 C 9,9 km/h (2 Bft) 0,00 %
30.11.2014 14:00 1,7 C 79 % 1013,1 hPa 0,0 l/m 6,4 km/h (2 Bft) S 0,00 h 0,000 mm 1,0 UV-I 70 W/m -1,5 C 1,3 C 9,9 km/h (2 Bft) 0,00 %
30.11.2014 15:00 1,6 C 79 % 1012,9 hPa 0,0 l/m 6,5 km/h (2 Bft) O 0,00 h 0,000 mm 0,0 UV-I 0 W/m -1,7 C 1,1 C 9,9 km/h (2 Bft) 0,00 %
30.11.2014 16:00 1,5 C 79 % 1012,5 hPa 0,0 l/m 9,5 km/h (2 Bft) O-NO 0,00 h 0,000 mm 0,0 UV-I 0 W/m -1,7 C -1,1 C 14,8 km/h (3 Bft) 0,00 %
30.11.2014 17:00 1,5 C 79 % 1012,6 hPa 0,0 l/m 7,6 km/h (2 Bft) S 0,00 h 0,000 mm 0,0 UV-I 0 W/m -1,7 C -0,6 C 12,9 km/h (3 Bft) 0,00 %
30.11.2014 18:00 1,5 C 79 % 1012,3 hPa 0,0 l/m 9,3 km/h (2 Bft) O-SO 0,00 h 0,000 mm 0,0 UV-I 0 W/m -1,7 C -2,1 C 13,9 km/h (3 Bft) 0,00 %
30.11.2014 19:00 1,4 C 81 % 1012,1 hPa 0,0 l/m 12,4 km/h (3 Bft) O-SO 0,00 h 0,000 mm 0,0 UV-I 0 W/m -1,6 C -3,3 C 16,9 km/h (3 Bft) 0,00 %
30.11.2014 20:00 1,4 C 81 % 1011,7 hPa 0,0 l/m 12,3 km/h (3 Bft) O 0,00 h 0,000 mm 0,0 UV-I 0 W/m -1,5 C -3,4 C 19,0 km/h (3 Bft) 0,00 %
30.11.2014 21:00 1,3 C 81 % 1011,4 hPa 0,0 l/m 10,3 km/h (2 Bft) O 0,00 h 0,000 mm 0,0 UV-I 0 W/m -1,5 C -2,3 C 15,0 km/h (3 Bft) 0,00 %
30.11.2014 22:00 1,3 C 81 % 1010,4 hPa 0,0 l/m 15,7 km/h (3 Bft) O 0,00 h 0,000 mm 0,0 UV-I 0 W/m -1,6 C -5,2 C 21,0 km/h (4 Bft) 0,00 %
30.11.2014 23:00 1,2 C 81 % 1010,3 hPa 0,0 l/m 12,9 km/h (3 Bft) O-SO 0,00 h 0,000 mm 0,0 UV-I 0 W/m -1,7 C -4,0 C 19,9 km/h (4 Bft) 0,00 %
Min-Datum _ 27.11.14 27.11.14 30.11.14 - 24.11.14 - - - - - 27.11.14 29.11.14 24.11.14 24.11.14
_ Min-Zeit 07:00 15:30 22:30 - 00:00 - - - - - 19:45 00:15 00:00 00:00
Minimum _ 0,1 C 67 % 1009,6 hPa - 0,0 km/h (0 Bft) - - - - - -4,4 C -13,1 C 0,0 km/h (0 Bft) 0,00 %
Max-Datum _ 25.11.14 24.11.14 25.11.14 24.11.14 29.11.14 - 24.11.14 24.11.14 25.11.14 27.11.14 24.11.14 25.11.14 29.11.14 24.11.14
_ Max-Zeit 12:00 23:00 00:00 00:00 00:15 - 11:45 00:00 10:45 13:30 00:00 12:30 00:15 00:00
Maximum _ 4,9 C 84 % 1026,9 hPa 0,0 l/m 31,0 km/h
O (5 Bft)
- 0,25 h 0,000 mm 2,0 UV-I 423 W/m 1,2 C 4,7 C 36,0 km/h
O (5 Bft)
0,00 %
Durchschnitt _ 1,9 C 77 % 1017,8 hPa #0,0 l/m 8,5 km/h (2 Bft) O #9:30 h #0,000 mm 1,1 UV-I 106 W/m -1,7 C -0,9 C 12,6 km/h (3 Bft) 0,00 %